Hourly Weather Biskira

Today, 27 October, Tuesday

Time Temperature Precipitation Wind Pressure Humidity
00:00 +22°C° 0 mm 9 mps 752 mmHg 42%
01:00 +21°C° 0 mm 5 mps 751 mmHg 37%
02:00 +18°C° 0 mm 7 mps 752 mmHg 41%
03:00 +16°C° 0 mm 9 mps 752 mmHg 46%
04:00 +16°C° 0 mm 8 mps 753 mmHg 47%
05:00 +15°C° 0 mm 7 mps 753 mmHg 48%
06:00 +15°C° 0 mm 7 mps 753 mmHg 49%
07:00 +16°C° 0 mm 6 mps 754 mmHg 43%
08:00 +19°C° 0 mm 6 mps 754 mmHg 37%
09:00 +20°C° 0 mm 5 mps 755 mmHg 31%
10:00 +21°C° 0 mm 5 mps 754 mmHg 27%
11:00 +22°C° 0 mm 4 mps 754 mmHg 24%
12:00 +23°C° 0 mm 4 mps 754 mmHg 20%
13:00 +23°C° 0 mm 4 mps 754 mmHg 21%
14:00 +23°C° 0 mm 5 mps 753 mmHg 21%
15:00 +23°C° 0 mm 5 mps 753 mmHg 22%
16:00 +22°C° 0 mm 5 mps 753 mmHg 24%
17:00 +21°C° 0 mm 4 mps 754 mmHg 27%
18:00 +20°C° 0 mm 4 mps 754 mmHg 29%
19:00 +20°C° 0 mm 4 mps 754 mmHg 30%
20:00 +20°C° 0 mm 3 mps 754 mmHg 30%
21:00 +19°C° 0 mm 3 mps 755 mmHg 31%
22:00 +19°C° 0 mm 3 mps 754 mmHg 32%
23:00 +18°C° 0 mm 2 mps 754 mmHg 34%

Tomorrow, 28 October, Wednesday

Time Temperature Precipitation Wind Pressure Humidity
00:00 +18°C° 0 mm 2 mps 754 mmHg 35%
01:00 +17°C° 0 mm 2 mps 754 mmHg 38%
02:00 +17°C° 0 mm 2 mps 754 mmHg 40%
03:00 +16°C° 0 mm 2 mps 754 mmHg 42%
04:00 +16°C° 0 mm 2 mps 754 mmHg 45%
05:00 +16°C° 0 mm 2 mps 754 mmHg 48%
06:00 +15°C° 0 mm 2 mps 754 mmHg 50%
07:00 +17°C° 0 mm 2 mps 755 mmHg 47%
08:00 +18°C° 0 mm 3 mps 755 mmHg 43%
09:00 +20°C° 0 mm 3 mps 756 mmHg 40%
10:00 +21°C° 0 mm 3 mps 756 mmHg 38%
11:00 +21°C° 0 mm 3 mps 755 mmHg 36%
12:00 +23°C° 0 mm 2 mps 755 mmHg 34%
13:00 +23°C° 0 mm 2 mps 755 mmHg 33%
14:00 +24°C° 0 mm 1 mps 755 mmHg 32%
15:00 +24°C° 0 mm 1 mps 755 mmHg 31%
16:00 +23°C° 0 mm 1 mps 755 mmHg 33%
17:00 +22°C° 0 mm 1 mps 755 mmHg 36%
18:00 +21°C° 0 mm 1 mps 755 mmHg 38%
19:00 +21°C° 0 mm 1 mps 756 mmHg 40%
20:00 +20°C° 0 mm 1 mps 756 mmHg 41%
21:00 +20°C° 0 mm 1 mps 757 mmHg 43%
22:00 +19°C° 0 mm 1 mps 757 mmHg 45%
23:00 +17°C° 0 mm 0 mps 757 mmHg 47%

Day after tomorrow, 29 October, Thursday

Time Temperature Precipitation Wind Pressure Humidity
00:00 +16°C° 0 mm 0 mps 757 mmHg 48%
01:00 +16°C° 0 mm 0 mps 756 mmHg 49%
02:00 +15°C° 0 mm 0 mps 756 mmHg 51%
03:00 +15°C° 0 mm 0 mps 756 mmHg 52%
04:00 +15°C° 0 mm 0 mps 756 mmHg 52%
05:00 +14°C° 0 mm 0 mps 757 mmHg 53%
06:00 +14°C° 0 mm 0 mps 757 mmHg 54%
07:00 +18°C° 0 mm 1 mps 757 mmHg 48%
08:00 +20°C° 0 mm 1 mps 758 mmHg 42%
09:00 +22°C° 0 mm 1 mps 758 mmHg 37%
10:00 +23°C° 0 mm 2 mps 758 mmHg 34%
11:00 +24°C° 0 mm 2 mps 758 mmHg 32%
12:00 +25°C° 0 mm 2 mps 758 mmHg 30%
13:00 +25°C° 0 mm 2 mps 757 mmHg 30%
14:00 +25°C° 0 mm 2 mps 757 mmHg 29%
15:00 +26°C° 0 mm 1 mps 757 mmHg 29%
16:00 +24°C° 0 mm 1 mps 757 mmHg 31%
17:00 +23°C° 0 mm 1 mps 757 mmHg 34%
18:00 +22°C° 0 mm 1 mps 758 mmHg 37%
19:00 +22°C° 0 mm 1 mps 758 mmHg 38%
20:00 +21°C° 0 mm 1 mps 758 mmHg 40%
21:00 +19°C° 0 mm 0 mps 759 mmHg 41%
22:00 +20°C° 0 mm 1 mps 759 mmHg 42%
23:00 +20°C° 0 mm 1 mps 758 mmHg 43%

30 October, Friday

Time Temperature Precipitation Wind Pressure Humidity
00:00 +19°C° 0 mm 1 mps 758 mmHg 44%
01:00 +19°C° 0 mm 1 mps 758 mmHg 45%
02:00 +19°C° 0 mm 1 mps 758 mmHg 46%
03:00 +18°C° 0 mm 1 mps 758 mmHg 47%
04:00 +18°C° 0 mm 1 mps 758 mmHg 47%
05:00 +18°C° 0 mm 1 mps 758 mmHg 47%
06:00 +18°C° 0 mm 1 mps 758 mmHg 47%
07:00 +19°C° 0 mm 1 mps 759 mmHg 43%
08:00 +20°C° 0 mm 2 mps 759 mmHg 39%
09:00 +23°C° 0 mm 2 mps 759 mmHg 35%
10:00 +22°C° 0 mm 3 mps 759 mmHg 34%
11:00 +24°C° 0 mm 3 mps 759 mmHg 34%
12:00 +25°C° 0 mm 3 mps 758 mmHg 33%
13:00 +25°C° 0 mm 2 mps 758 mmHg 34%
14:00 +25°C° 0 mm 2 mps 758 mmHg 34%
15:00 +25°C° 0 mm 2 mps 757 mmHg 34%
16:00 +24°C° 0 mm 1 mps 757 mmHg 37%
17:00 +23°C° 0 mm 1 mps 757 mmHg 40%
18:00 +20°C° 0 mm 0 mps 757 mmHg 43%
19:00 +19°C° 0 mm 0 mps 758 mmHg 45%
20:00 +19°C° 0 mm 0 mps 758 mmHg 47%
21:00 +18°C° 0 mm 0 mps 758 mmHg 48%
22:00 +18°C° 0 mm 0 mps 758 mmHg 50%
23:00 +17°C° 0 mm 0 mps 758 mmHg 52%

31 October, Saturday

Time Temperature Precipitation Wind Pressure Humidity
00:00 +17°C° 0 mm 0 mps 757 mmHg 54%
01:00 +16°C° 0 mm 0 mps 757 mmHg 56%
02:00 +16°C° 0 mm 0 mps 757 mmHg 57%
03:00 +16°C° 0 mm 0 mps 757 mmHg 58%
04:00 +15°C° 0 mm 0 mps 757 mmHg 59%
05:00 +15°C° 0 mm 0 mps 757 mmHg 60%
06:00 +15°C° 0 mm 0 mps 757 mmHg 61%

1 November, Sunday

Time Temperature Precipitation Wind Pressure Humidity
Show more

We Need Your Consent

Meteoprog and our Service Providers may store and access personal data such as cookies, device identifiers or other similar technologies on your device and process such data to personalise content and ads, as well as provide social media features and to analyse the traffic.

  • Store and/or access information on your device

    Cookies, device identifiers or other information can be stored or accessed on your device for the purposes indicated above.

  • Personalised ads and content, ad and content measurement, audience insights, and products development

    Ads and content can be personalised based on a profile. More data can be added to better personalise ads and content. Ad and content performance can be measured. Insights about the audience who saw the ads and content can be derived. Such data can be used to develop or improve user’s experience, systems and software.

By clicking ‘I Agree’ you will allow the use of indicated cookies, device identifiers, web beacons or other similar technologies. Your settings can be changed in the browser on your device.

For certain purposes, legitimate interests may be relied on, rather than consent. You can read more about this in our Privacy and Cookie Policy.